Time,TemperatureF,DewpointF,PressureIn,WindDirection,WindDirectionDegrees,WindSpeedMPH,WindSpeedGustMPH,Humidity,HourlyPrecipIn,Conditions,Clouds,dailyrainin,SoftwareType,DateUTC
2013-01-18 00:04:00,32.5,12.3,30.09,North,360,0.0,0.0,43,-99.99,,,-99.99,WSDL version 420,2013-01-18 06:04:00,
2013-01-18 00:10:00,32.7,12.7,30.09,North,360,0.0,0.0,43,-99.99,,,-99.99,WSDL version 420,2013-01-18 06:10:00,
2013-01-18 00:16:00,32.7,12.7,30.09,North,360,0.0,0.0,43,-99.99,,,-99.99,WSDL version 420,2013-01-18 06:16:00,
2013-01-18 00:22:00,32.6,12.4,30.09,North,360,0.0,0.0,42,-99.99,,,-99.99,WSDL version 420,2013-01-18 06:22:00,
2013-01-18 00:28:00,32.1,12.7,30.09,North,360,0.0,1.1,42,-99.99,,,-99.99,WSDL version 420,2013-01-18 06:28:00,
2013-01-18 00:34:00,32.0,13.5,30.09,North,360,0.0,1.1,43,-99.99,,,-99.99,WSDL version 420,2013-01-18 06:34:00,
2013-01-18 00:40:00,32.2,12.2,30.09,North,360,0.0,0.0,43,-99.99,,,-99.99,WSDL version 420,2013-01-18 06:40:00,
2013-01-18 00:46:00,32.1,13.2,30.09,North,360,0.0,0.0,43,-99.99,,,-99.99,WSDL version 420,2013-01-18 06:46:00,
2013-01-18 00:52:00,32.2,12.2,30.09,North,360,0.0,0.0,43,-99.99,,,-99.99,WSDL version 420,2013-01-18 06:52:00,
2013-01-18 00:58:00,31.9,14.1,30.09,North,360,0.0,0.0,43,-99.99,,,-99.99,WSDL version 420,2013-01-18 06:58:00,
2013-01-18 01:04:00,31.8,14.1,30.09,North,360,0.0,0.0,43,-99.99,,,-99.99,WSDL version 420,2013-01-18 07:04:00,
2013-01-18 01:10:00,31.6,13.9,30.09,North,360,0.0,0.0,43,-99.99,,,-99.99,WSDL version 420,2013-01-18 07:10:00,
2013-01-18 01:16:00,31.7,14.1,30.09,North,360,0.0,0.0,44,-99.99,,,-99.99,WSDL version 420,2013-01-18 07:16:00,
2013-01-18 01:22:00,31.9,14.6,30.09,North,360,0.0,0.0,44,-99.99,,,-99.99,WSDL version 420,2013-01-18 07:22:00,
2013-01-18 01:28:00,31.6,13.9,30.09,North,360,0.0,0.0,43,-99.99,,,-99.99,WSDL version 420,2013-01-18 07:28:00,
2013-01-18 01:34:00,31.6,14.1,30.09,North,360,0.0,0.0,44,-99.99,,,-99.99,WSDL version 420,2013-01-18 07:34:00,
2013-01-18 01:39:00,31.5,14.1,30.09,North,360,0.0,0.0,43,-99.99,,,-99.99,WSDL version 420,2013-01-18 07:39:00,
2013-01-18 01:46:00,31.4,13.9,30.09,North,360,0.0,0.0,44,-99.99,,,-99.99,WSDL version 420,2013-01-18 07:46:00,
2013-01-18 01:52:00,31.3,13.8,30.12,North,360,0.0,0.0,43,-99.99,,,-99.99,WSDL version 420,2013-01-18 07:52:00,
2013-01-18 01:57:00,31.2,13.8,30.12,North,360,0.0,0.0,43,-99.99,,,-99.99,WSDL version 420,2013-01-18 07:57:00,
2013-01-18 02:04:00,31.2,14.0,30.12,North,360,0.0,0.0,44,-99.99,,,-99.99,WSDL version 420,2013-01-18 08:04:00,
2013-01-18 02:10:00,31.4,14.2,30.12,North,360,0.0,0.0,44,-99.99,,,-99.99,WSDL version 420,2013-01-18 08:10:00,
2013-01-18 02:16:00,31.5,14.2,30.12,North,360,0.0,0.0,44,-99.99,,,-99.99,WSDL version 420,2013-01-18 08:16:00,
2013-01-18 02:22:00,31.3,14.0,30.12,North,360,0.0,0.0,44,-99.99,,,-99.99,WSDL version 420,2013-01-18 08:22:00,
2013-01-18 02:28:00,31.2,13.7,30.12,North,360,0.0,0.0,44,-99.99,,,-99.99,WSDL version 420,2013-01-18 08:28:00,
2013-01-18 02:34:00,31.1,13.7,30.12,North,360,0.0,0.0,43,-99.99,,,-99.99,WSDL version 420,2013-01-18 08:34:00,
2013-01-18 02:40:00,30.9,13.5,30.12,North,360,0.0,0.0,44,-99.99,,,-99.99,WSDL version 420,2013-01-18 08:40:00,
2013-01-18 02:46:00,31.1,13.8,30.12,North,360,0.0,0.0,44,-99.99,,,-99.99,WSDL version 420,2013-01-18 08:46:00,
2013-01-18 02:52:00,31.1,13.8,30.12,North,360,0.0,0.0,44,-99.99,,,-99.99,WSDL version 420,2013-01-18 08:52:00,
2013-01-18 02:58:00,30.9,13.7,30.12,North,360,0.0,0.0,44,-99.99,,,-99.99,WSDL version 420,2013-01-18 08:58:00,
2013-01-18 03:04:00,30.8,13.5,30.12,North,360,0.0,0.0,44,-99.99,,,-99.99,WSDL version 420,2013-01-18 09:04:00,
2013-01-18 03:10:00,30.5,13.1,30.12,North,360,0.0,0.0,43,-99.99,,,-99.99,WSDL version 420,2013-01-18 09:10:00,
2013-01-18 03:16:00,30.4,13.2,30.12,North,360,0.0,0.0,44,-99.99,,,-99.99,WSDL version 420,2013-01-18 09:16:00,
2013-01-18 03:22:00,30.6,13.5,30.12,North,360,0.0,0.0,45,-99.99,,,-99.99,WSDL version 420,2013-01-18 09:22:00,
2013-01-18 03:28:00,30.4,13.2,30.12,North,360,0.0,0.0,44,-99.99,,,-99.99,WSDL version 420,2013-01-18 09:28:00,
2013-01-18 03:34:00,30.2,13.3,30.12,North,360,0.0,0.0,45,-99.99,,,-99.99,WSDL version 420,2013-01-18 09:34:00,
2013-01-18 03:40:00,30.2,13.2,30.12,North,360,0.0,0.0,44,-99.99,,,-99.99,WSDL version 420,2013-01-18 09:40:00,
2013-01-18 03:46:00,30.1,12.9,30.12,North,360,0.0,0.0,44,-99.99,,,-99.99,WSDL version 420,2013-01-18 09:46:00,
2013-01-18 03:52:00,29.7,12.5,30.12,North,360,0.0,0.0,44,-99.99,,,-99.99,WSDL version 420,2013-01-18 09:52:00,
2013-01-18 03:58:00,29.6,12.7,30.12,North,360,0.0,0.0,45,-99.99,,,-99.99,WSDL version 420,2013-01-18 09:58:00,
2013-01-18 04:04:00,29.7,13.0,30.12,North,360,0.0,0.0,45,-99.99,,,-99.99,WSDL version 420,2013-01-18 10:04:00,
2013-01-18 04:10:00,29.4,12.4,30.12,North,360,0.0,0.0,44,-99.99,,,-99.99,WSDL version 420,2013-01-18 10:10:00,
2013-01-18 04:16:00,29.1,11.9,30.12,North,360,0.0,0.0,44,-99.99,,,-99.99,WSDL version 420,2013-01-18 10:16:00,
2013-01-18 04:22:00,29.1,12.1,30.12,North,360,0.0,0.0,44,-99.99,,,-99.99,WSDL version 420,2013-01-18 10:22:00,
2013-01-18 04:28:00,28.5,11.4,30.12,North,360,0.0,0.0,44,-99.99,,,-99.99,WSDL version 420,2013-01-18 10:28:00,
2013-01-18 04:34:00,28.2,11.1,30.12,North,360,0.0,0.0,44,-99.99,,,-99.99,WSDL version 420,2013-01-18 10:34:00,
2013-01-18 04:40:00,28.4,11.8,30.12,North,360,0.0,0.0,46,-99.99,,,-99.99,WSDL version 420,2013-01-18 10:40:00,
2013-01-18 04:46:00,28.6,12.5,30.12,North,360,0.0,0.0,46,-99.99,,,-99.99,WSDL version 420,2013-01-18 10:46:00,
2013-01-18 04:52:00,28.9,12.7,30.12,North,360,0.0,0.0,46,-99.99,,,-99.99,WSDL version 420,2013-01-18 10:52:00,
2013-01-18 04:58:00,28.9,12.7,30.12,North,360,0.0,0.0,46,-99.99,,,-99.99,WSDL version 420,2013-01-18 10:58:00,
2013-01-18 05:04:00,28.9,12.7,30.09,North,360,0.0,0.0,45,-99.99,,,-99.99,WSDL version 420,2013-01-18 11:04:00,
2013-01-18 05:10:00,28.4,11.6,30.09,North,360,0.0,0.0,44,-99.99,,,-99.99,WSDL version 420,2013-01-18 11:10:00,
2013-01-18 05:16:00,28.4,11.8,30.09,North,360,0.0,0.0,46,-99.99,,,-99.99,WSDL version 420,2013-01-18 11:16:00,
2013-01-18 05:22:00,28.4,12.2,30.09,North,360,0.0,0.0,46,-99.99,,,-99.99,WSDL version 420,2013-01-18 11:22:00,
2013-01-18 05:28:00,28.6,12.4,30.09,North,360,0.0,0.0,46,-99.99,,,-99.99,WSDL version 420,2013-01-18 11:28:00,
2013-01-18 05:34:00,28.3,11.9,30.09,North,360,0.0,0.0,45,-99.99,,,-99.99,WSDL version 420,2013-01-18 11:34:00,
2013-01-18 05:40:00,27.9,11.1,30.09,North,360,0.0,0.0,45,-99.99,,,-99.99,WSDL version 420,2013-01-18 11:40:00,
2013-01-18 05:46:00,27.9,11.5,30.09,North,360,0.0,0.0,46,-99.99,,,-99.99,WSDL version 420,2013-01-18 11:46:00,
2013-01-18 05:52:00,28.0,11.9,30.09,North,360,0.0,0.0,46,-99.99,,,-99.99,WSDL version 420,2013-01-18 11:52:00,
2013-01-18 05:58:00,28.2,12.0,30.09,North,360,0.0,0.0,46,-99.99,,,-99.99,WSDL version 420,2013-01-18 11:58:00,
2013-01-18 06:04:00,28.1,11.9,30.12,North,360,0.0,0.0,46,-99.99,,,-99.99,WSDL version 420,2013-01-18 12:04:00,
2013-01-18 06:10:00,28.2,12.1,30.12,North,360,0.0,0.0,46,-99.99,,,-99.99,WSDL version 420,2013-01-18 12:10:00,
2013-01-18 06:16:00,28.2,12.1,30.12,North,360,0.0,0.0,46,-99.99,,,-99.99,WSDL version 420,2013-01-18 12:16:00,
2013-01-18 06:22:00,28.2,12.0,30.12,North,360,0.0,0.0,46,-99.99,,,-99.99,WSDL version 420,2013-01-18 12:22:00,
2013-01-18 06:28:00,27.9,11.4,30.12,North,360,0.0,0.0,45,-99.99,,,-99.99,WSDL version 420,2013-01-18 12:28:00,
2013-01-18 06:34:00,27.6,10.9,30.09,North,360,0.0,0.0,45,-99.99,,,-99.99,WSDL version 420,2013-01-18 12:34:00,
2013-01-18 06:40:00,27.7,11.6,30.09,North,360,0.0,0.0,46,-99.99,,,-99.99,WSDL version 420,2013-01-18 12:40:00,
2013-01-18 06:46:00,27.9,11.7,30.09,North,360,0.0,0.0,46,-99.99,,,-99.99,WSDL version 420,2013-01-18 12:46:00,
2013-01-18 06:52:00,27.9,11.7,30.09,North,360,0.0,0.0,46,-99.99,,,-99.99,WSDL version 420,2013-01-18 12:52:00,
2013-01-18 06:58:00,27.7,11.5,30.09,North,360,0.0,0.0,45,-99.99,,,-99.99,WSDL version 420,2013-01-18 12:58:00,
2013-01-18 07:04:00,27.1,10.6,30.12,North,360,0.0,0.0,45,-99.99,,,-99.99,WSDL version 420,2013-01-18 13:04:00,
2013-01-18 07:10:00,27.0,10.4,30.12,North,360,0.0,0.0,45,-99.99,,,-99.99,WSDL version 420,2013-01-18 13:10:00,
2013-01-18 07:16:00,27.0,10.8,30.12,North,360,0.0,0.0,45,-99.99,,,-99.99,WSDL version 420,2013-01-18 13:16:00,
2013-01-18 07:22:00,26.8,10.3,30.12,North,360,0.0,0.0,46,-99.99,,,-99.99,WSDL version 420,2013-01-18 13:22:00,
2013-01-18 07:28:00,26.9,10.9,30.12,North,360,0.0,0.0,47,-99.99,,,-99.99,WSDL version 420,2013-01-18 13:28:00,
2013-01-18 07:34:00,27.1,11.3,30.12,North,360,0.0,0.0,46,-99.99,,,-99.99,WSDL version 420,2013-01-18 13:34:00,
2013-01-18 07:40:00,27.1,11.5,30.12,North,360,0.0,0.0,47,-99.99,,,-99.99,WSDL version 420,2013-01-18 13:40:00,
2013-01-18 07:46:00,27.1,11.0,30.12,North,360,0.0,0.0,46,-99.99,,,-99.99,WSDL version 420,2013-01-18 13:46:00,
2013-01-18 07:52:00,27.0,10.9,30.12,North,360,0.0,0.0,46,-99.99,,,-99.99,WSDL version 420,2013-01-18 13:52:00,
2013-01-18 07:58:00,27.0,10.9,30.12,North,360,0.0,0.0,46,-99.99,,,-99.99,WSDL version 420,2013-01-18 13:58:00,
2013-01-18 08:04:00,27.1,11.4,30.12,North,360,0.0,0.0,47,-99.99,,,-99.99,WSDL version 420,2013-01-18 14:04:00,
2013-01-18 08:10:00,27.5,11.8,30.12,North,360,0.0,0.0,47,-99.99,,,-99.99,WSDL version 420,2013-01-18 14:10:00,
2013-01-18 08:16:00,27.8,12.1,30.12,North,360,0.0,0.0,47,-99.99,,,-99.99,WSDL version 420,2013-01-18 14:16:00,
2013-01-18 08:22:00,27.9,12.2,30.12,North,360,0.0,0.0,47,-99.99,,,-99.99,WSDL version 420,2013-01-18 14:22:00,
2013-01-18 08:28:00,27.9,12.2,30.12,North,360,0.0,0.0,47,-99.99,,,-99.99,WSDL version 420,2013-01-18 14:28:00,
2013-01-18 08:34:00,28.3,12.6,30.12,North,360,0.0,0.0,47,-99.99,,,-99.99,WSDL version 420,2013-01-18 14:34:00,
2013-01-18 08:40:00,28.6,13.0,30.12,North,360,0.0,0.0,48,-99.99,,,-99.99,WSDL version 420,2013-01-18 14:40:00,
2013-01-18 08:46:00,29.2,13.8,30.12,North,360,0.0,0.0,48,-99.99,,,-99.99,WSDL version 420,2013-01-18 14:46:00,
2013-01-18 08:52:00,29.6,14.2,30.12,SE,131,0.3,2.0,48,-99.99,,,-99.99,WSDL version 420,2013-01-18 14:52:00,
2013-01-18 08:58:00,30.1,15.1,30.12,SSE,158,0.0,1.1,49,-99.99,,,-99.99,WSDL version 420,2013-01-18 14:58:00,
2013-01-18 09:04:00,30.6,15.6,30.12,SSE,158,0.0,0.0,49,-99.99,,,-99.99,WSDL version 420,2013-01-18 15:04:00,
2013-01-18 09:10:00,31.2,16.0,30.12,East,84,0.8,2.2,48,-99.99,,,-99.99,WSDL version 420,2013-01-18 15:10:00,
2013-01-18 09:16:00,32.0,15.6,30.12,East,90,1.0,3.1,47,-99.99,,,-99.99,WSDL version 420,2013-01-18 15:16:00,
2013-01-18 09:22:00,32.5,14.5,30.12,East,90,1.7,3.1,46,-99.99,,,-99.99,WSDL version 420,2013-01-18 15:22:00,
2013-01-18 09:28:00,33.2,14.6,30.12,NE,45,1.1,2.9,46,-99.99,,,-99.99,WSDL version 420,2013-01-18 15:28:00,
2013-01-18 09:34:00,33.6,14.5,30.12,NE,45,0.9,2.0,45,-99.99,,,-99.99,WSDL version 420,2013-01-18 15:34:00,
2013-01-18 09:40:00,33.9,14.5,30.12,NE,56,0.4,1.6,44,-99.99,,,-99.99,WSDL version 420,2013-01-18 15:40:00,
2013-01-18 09:46:00,34.3,14.6,30.12,SE,135,1.6,3.1,44,-99.99,,,-99.99,WSDL version 420,2013-01-18 15:46:00,
2013-01-18 09:52:00,34.8,15.0,30.12,East,87,1.8,3.4,44,-99.99,,,-99.99,WSDL version 420,2013-01-18 15:52:00,
2013-01-18 09:58:00,35.3,15.0,30.12,SE,141,1.3,3.4,42,-99.99,,,-99.99,WSDL version 420,2013-01-18 15:58:00,
2013-01-18 10:04:00,35.9,14.9,30.12,SSE,158,1.0,4.0,41,-99.99,,,-99.99,WSDL version 420,2013-01-18 16:04:00,
2013-01-18 10:10:00,36.4,15.2,30.12,East,100,2.1,4.9,41,-99.99,,,-99.99,WSDL version 420,2013-01-18 16:10:00,
2013-01-18 10:16:00,37.1,15.2,30.12,SE,138,2.7,4.9,40,-99.99,,,-99.99,WSDL version 420,2013-01-18 16:16:00,
2013-01-18 10:22:00,37.5,15.3,30.12,SE,138,2.9,4.7,40,-99.99,,,-99.99,WSDL version 420,2013-01-18 16:22:00,
2013-01-18 10:28:00,37.6,15.0,30.12,SSE,158,3.0,4.3,39,-99.99,,,-99.99,WSDL version 420,2013-01-18 16:28:00,
2013-01-18 10:34:00,37.9,14.7,30.12,South,177,4.0,6.5,37,-99.99,,,-99.99,WSDL version 420,2013-01-18 16:34:00,
2013-01-18 10:40:00,38.3,15.4,30.12,South,169,3.6,5.6,39,-99.99,,,-99.99,WSDL version 420,2013-01-18 16:40:00,
2013-01-18 10:46:00,38.8,15.1,30.12,South,169,2.2,4.7,36,-99.99,,,-99.99,WSDL version 420,2013-01-18 16:46:00,
2013-01-18 10:52:00,39.6,15.4,30.12,SSE,150,3.2,4.7,37,-99.99,,,-99.99,WSDL version 420,2013-01-18 16:52:00,
2013-01-18 10:58:00,40.0,14.6,30.12,SSE,158,2.8,4.9,36,-99.99,,,-99.99,WSDL version 420,2013-01-18 16:58:00,
2013-01-18 11:04:00,40.4,14.6,30.12,SE,132,1.9,4.9,34,-99.99,,,-99.99,WSDL version 420,2013-01-18 17:04:00,
2013-01-18 11:10:00,40.9,13.4,30.12,East,93,2.4,4.0,31,-99.99,,,-99.99,WSDL version 420,2013-01-18 17:10:00,
2013-01-18 11:16:00,41.3,12.4,30.12,SSE,163,2.7,4.3,31,-99.99,,,-99.99,WSDL version 420,2013-01-18 17:16:00,
2013-01-18 11:22:00,41.8,13.2,30.12,SSE,158,0.4,4.3,31,-99.99,,,-99.99,WSDL version 420,2013-01-18 17:22:00,
2013-01-18 11:28:00,42.3,13.5,30.12,SSE,150,1.5,3.1,30,-99.99,,,-99.99,WSDL version 420,2013-01-18 17:28:00,
2013-01-18 11:34:00,42.8,13.5,30.12,ESE,115,1.7,5.4,30,-99.99,,,-99.99,WSDL version 420,2013-01-18 17:34:00,
2013-01-18 11:40:00,42.9,12.9,30.12,SSE,168,2.0,5.6,29,-99.99,,,-99.99,WSDL version 420,2013-01-18 17:40:00,
2013-01-18 11:46:00,43.2,13.1,30.12,SSE,148,2.0,4.7,29,-99.99,,,-99.99,WSDL version 420,2013-01-18 17:46:00,
2013-01-18 11:52:00,43.6,13.3,30.09,SE,129,2.5,4.3,29,-99.99,,,-99.99,WSDL version 420,2013-01-18 17:52:00,
2013-01-18 11:58:00,43.9,13.7,30.09,ESE,105,3.7,6.0,29,-99.99,,,-99.99,WSDL version 420,2013-01-18 17:58:00,
2013-01-18 12:04:00,44.2,13.5,30.09,East,90,2.7,6.0,28,-99.99,,,-99.99,WSDL version 420,2013-01-18 18:04:00,
2013-01-18 12:10:00,44.6,13.4,30.09,SE,128,2.7,4.3,28,-99.99,,,-99.99,WSDL version 420,2013-01-18 18:10:00,
2013-01-18 12:16:00,45.1,13.8,30.09,East,90,1.1,4.0,28,-99.99,,,-99.99,WSDL version 420,2013-01-18 18:16:00,
2013-01-18 12:22:00,45.6,14.3,30.09,SE,143,3.2,4.9,28,-99.99,,,-99.99,WSDL version 420,2013-01-18 18:22:00,
2013-01-18 12:28:00,45.8,14.5,30.09,SE,126,2.5,4.9,28,-99.99,,,-99.99,WSDL version 420,2013-01-18 18:28:00,
2013-01-18 12:34:00,45.9,14.3,30.06,SSE,155,2.9,4.9,28,-99.99,,,-99.99,WSDL version 420,2013-01-18 18:34:00,
2013-01-18 12:40:00,46.3,14.3,30.06,SSE,166,2.7,4.9,27,-99.99,,,-99.99,WSDL version 420,2013-01-18 18:40:00,
2013-01-18 12:46:00,46.6,14.4,30.06,SSE,166,5.1,6.3,27,-99.99,,,-99.99,WSDL version 420,2013-01-18 18:46:00,
2013-01-18 12:52:00,46.6,13.1,30.06,SW,225,3.0,6.3,24,-99.99,,,-99.99,WSDL version 420,2013-01-18 18:52:00,
2013-01-18 12:58:00,47.1,11.0,30.06,South,177,2.6,4.9,24,-99.99,,,-99.99,WSDL version 420,2013-01-18 18:58:00,
2013-01-18 13:04:00,47.1,12.2,30.06,SE,141,2.0,4.9,24,-99.99,,,-99.99,WSDL version 420,2013-01-18 19:04:00,
2013-01-18 13:10:00,47.3,12.3,30.06,South,173,4.6,7.4,24,-99.99,,,-99.99,WSDL version 420,2013-01-18 19:10:00,
2013-01-18 13:16:00,47.4,12.4,30.06,SSE,161,4.4,6.5,24,-99.99,,,-99.99,WSDL version 420,2013-01-18 19:16:00,
2013-01-18 13:22:00,47.5,12.5,30.06,South,180,2.6,6.5,24,-99.99,,,-99.99,WSDL version 420,2013-01-18 19:22:00,
2013-01-18 13:28:00,47.7,12.6,30.06,SSE,148,3.7,6.0,24,-99.99,,,-99.99,WSDL version 420,2013-01-18 19:28:00,
2013-01-18 13:34:00,47.7,12.6,30.06,SE,129,3.0,5.8,24,-99.99,,,-99.99,WSDL version 420,2013-01-18 19:34:00,
2013-01-18 13:40:00,47.9,12.8,30.06,South,185,2.4,5.4,24,-99.99,,,-99.99,WSDL version 420,2013-01-18 19:40:00,
2013-01-18 13:46:00,48.5,13.3,30.06,SE,143,2.2,5.6,24,-99.99,,,-99.99,WSDL version 420,2013-01-18 19:46:00,
2013-01-18 13:52:00,48.6,13.4,30.06,SSE,148,3.9,6.0,24,-99.99,,,-99.99,WSDL version 420,2013-01-18 19:52:00,
2013-01-18 13:58:00,48.7,13.6,30.06,SSE,165,3.3,6.3,24,-99.99,,,-99.99,WSDL version 420,2013-01-18 19:58:00,
2013-01-18 14:04:00,48.8,13.6,30.06,South,183,1.8,6.3,24,-99.99,,,-99.99,WSDL version 420,2013-01-18 20:04:00,
2013-01-18 14:10:00,49.1,10.8,30.06,SSE,155,4.8,7.4,21,-99.99,,,-99.99,WSDL version 420,2013-01-18 20:10:00,
2013-01-18 14:16:00,49.3,11.0,30.06,SSW,212,3.0,7.4,21,-99.99,,,-99.99,WSDL version 420,2013-01-18 20:16:00,
2013-01-18 14:22:00,49.9,11.5,30.03,South,174,3.7,6.3,21,-99.99,,,-99.99,WSDL version 420,2013-01-18 20:22:00,
2013-01-18 14:28:00,49.8,11.4,30.03,SSE,158,1.5,5.4,21,-99.99,,,-99.99,WSDL version 420,2013-01-18 20:28:00,
2013-01-18 14:34:00,49.8,11.4,30.03,South,191,3.5,7.8,21,-99.99,,,-99.99,WSDL version 420,2013-01-18 20:34:00,
2013-01-18 14:40:00,50.2,11.8,30.03,SSE,162,1.3,7.8,21,-99.99,,,-99.99,WSDL version 420,2013-01-18 20:40:00,
2013-01-18 14:46:00,50.5,12.1,30.03,SSE,163,4.1,6.5,21,-99.99,,,-99.99,WSDL version 420,2013-01-18 20:46:00,
2013-01-18 14:52:00,50.8,12.2,30.03,South,177,2.9,6.5,21,-99.99,,,-99.99,WSDL version 420,2013-01-18 20:52:00,
2013-01-18 14:58:00,51.2,12.6,30.03,SSE,158,4.0,6.5,21,-99.99,,,-99.99,WSDL version 420,2013-01-18 20:58:00,
2013-01-18 15:04:00,51.4,12.8,30.03,SSE,164,4.5,7.6,21,-99.99,,,-99.99,WSDL version 420,2013-01-18 21:04:00,
2013-01-18 15:10:00,51.8,13.1,30.03,SSE,166,3.4,7.6,21,-99.99,,,-99.99,WSDL version 420,2013-01-18 21:10:00,
2013-01-18 15:16:00,52.6,13.7,30.03,SE,143,4.4,6.3,21,-99.99,,,-99.99,WSDL version 420,2013-01-18 21:16:00,
2013-01-18 15:22:00,53.0,14.1,30.03,South,180,3.4,6.3,21,-99.99,,,-99.99,WSDL version 420,2013-01-18 21:22:00,
2013-01-18 15:28:00,53.5,14.0,30.03,SSE,158,2.7,6.0,20,-99.99,,,-99.99,WSDL version 420,2013-01-18 21:28:00,
2013-01-18 15:34:00,54.1,14.0,30.03,South,176,4.5,5.8,20,-99.99,,,-99.99,WSDL version 420,2013-01-18 21:34:00,
2013-01-18 15:40:00,53.6,13.5,30.03,SE,135,4.4,5.8,20,-99.99,,,-99.99,WSDL version 420,2013-01-18 21:40:00,
2013-01-18 15:46:00,53.2,14.3,30.03,SSE,153,4.7,7.6,21,-99.99,,,-99.99,WSDL version 420,2013-01-18 21:46:00,
2013-01-18 15:52:00,52.6,13.8,30.03,SE,146,3.7,7.6,21,-99.99,,,-99.99,WSDL version 420,2013-01-18 21:52:00,
2013-01-18 15:58:00,52.2,11.7,30.03,SSE,158,3.3,6.5,18,-99.99,,,-99.99,WSDL version 420,2013-01-18 21:58:00,
2013-01-18 16:04:00,51.9,10.5,30.03,SSE,164,3.3,7.2,19,-99.99,,,-99.99,WSDL version 420,2013-01-18 22:04:00,
2013-01-18 16:10:00,51.6,10.7,30.03,SSE,166,3.4,7.2,19,-99.99,,,-99.99,WSDL version 420,2013-01-18 22:10:00,
2013-01-18 16:16:00,51.2,10.3,30.03,SSE,164,3.8,6.3,19,-99.99,,,-99.99,WSDL version 420,2013-01-18 22:16:00,
2013-01-18 16:22:00,50.8,10.0,30.03,SSE,158,3.5,6.3,19,-99.99,,,-99.99,WSDL version 420,2013-01-18 22:22:00,
2013-01-18 16:28:00,50.5,9.7,30.03,SSE,161,4.2,7.2,19,-99.99,,,-99.99,WSDL version 420,2013-01-18 22:28:00,
2013-01-18 16:34:00,50.2,9.5,30.03,SSE,163,5.1,7.2,19,-99.99,,,-99.99,WSDL version 420,2013-01-18 22:34:00,
2013-01-18 16:40:00,50.2,9.6,30.03,SSE,161,3.5,6.3,19,-99.99,,,-99.99,WSDL version 420,2013-01-18 22:40:00,
2013-01-18 16:46:00,50.0,9.3,30.03,South,173,4.3,7.4,19,-99.99,,,-99.99,WSDL version 420,2013-01-18 22:46:00,
2013-01-18 16:52:00,49.4,8.9,30.03,SSE,158,3.7,7.4,19,-99.99,,,-99.99,WSDL version 420,2013-01-18 22:52:00,
2013-01-18 16:58:00,48.9,8.4,30.03,SSE,158,3.4,6.5,19,-99.99,,,-99.99,WSDL version 420,2013-01-18 22:58:00,
2013-01-18 17:04:00,48.5,8.1,30.00,SSE,154,4.2,6.5,19,-99.99,,,-99.99,WSDL version 420,2013-01-18 23:04:00,
2013-01-18 17:10:00,48.1,7.7,30.00,SSE,158,3.4,6.5,19,-99.99,,,-99.99,WSDL version 420,2013-01-18 23:10:00,
2013-01-18 17:16:00,47.6,7.4,30.00,SSE,158,2.6,4.9,19,-99.99,,,-99.99,WSDL version 420,2013-01-18 23:16:00,
2013-01-18 17:22:00,47.2,7.0,30.03,SSE,158,2.2,4.0,19,-99.99,,,-99.99,WSDL version 420,2013-01-18 23:22:00,
2013-01-18 17:28:00,46.7,6.6,30.03,SSE,158,2.7,3.4,19,-99.99,,,-99.99,WSDL version 420,2013-01-18 23:28:00,
2013-01-18 17:34:00,46.3,6.9,30.03,SSE,158,2.6,3.6,20,-99.99,,,-99.99,WSDL version 420,2013-01-18 23:34:00,
2013-01-18 17:40:00,45.9,7.1,30.03,SSE,158,2.8,4.3,20,-99.99,,,-99.99,WSDL version 420,2013-01-18 23:40:00,
2013-01-18 17:46:00,45.6,6.8,30.03,SSE,158,2.3,4.3,20,-99.99,,,-99.99,WSDL version 420,2013-01-18 23:46:00,
2013-01-18 17:52:00,45.4,6.6,30.00,SSE,158,2.5,3.4,20,-99.99,,,-99.99,WSDL version 420,2013-01-18 23:52:00,
2013-01-18 17:58:00,45.0,6.3,30.00,SSE,158,2.3,3.4,20,-99.99,,,-99.99,WSDL version 420,2013-01-18 23:58:00,
2013-01-18 18:04:00,44.6,8.3,30.00,SSE,158,2.2,2.7,23,-99.99,,,-99.99,WSDL version 420,2013-01-19 00:04:00,
2013-01-18 18:10:00,44.2,8.8,30.00,SSE,158,1.6,2.9,23,-99.99,,,-99.99,WSDL version 420,2013-01-19 00:10:00,
2013-01-18 18:16:00,44.0,8.5,30.00,SSE,158,0.0,2.9,23,-99.99,,,-99.99,WSDL version 420,2013-01-19 00:16:00,
2013-01-18 18:22:00,43.6,8.2,30.00,SSE,158,0.0,0.9,23,-99.99,,,-99.99,WSDL version 420,2013-01-19 00:22:00,
2013-01-18 18:28:00,43.3,8.0,30.00,SSE,158,0.0,0.0,23,-99.99,,,-99.99,WSDL version 420,2013-01-19 00:28:00,
2013-01-18 18:34:00,43.0,7.7,30.00,SSE,158,0.0,0.0,23,-99.99,,,-99.99,WSDL version 420,2013-01-19 00:34:00,
2013-01-18 18:40:00,42.8,7.5,30.00,SSE,158,0.0,2.5,23,-99.99,,,-99.99,WSDL version 420,2013-01-19 00:40:00,
2013-01-18 18:46:00,42.4,7.2,30.00,SSE,158,2.3,2.9,23,-99.99,,,-99.99,WSDL version 420,2013-01-19 00:46:00,
2013-01-18 18:52:00,42.3,7.1,30.00,SSE,158,2.3,2.9,23,-99.99,,,-99.99,WSDL version 420,2013-01-19 00:52:00,
2013-01-18 18:58:00,42.1,6.9,30.00,SSE,158,2.4,2.9,23,-99.99,,,-99.99,WSDL version 420,2013-01-19 00:58:00,
2013-01-18 19:04:00,42.1,6.9,30.00,SSE,158,2.3,3.4,23,-99.99,,,-99.99,WSDL version 420,2013-01-19 01:04:00,
2013-01-18 19:10:00,41.9,6.8,30.00,SSE,158,0.0,2.9,23,-99.99,,,-99.99,WSDL version 420,2013-01-19 01:10:00,
2013-01-18 19:16:00,41.5,6.4,30.00,SSE,158,0.0,0.9,23,-99.99,,,-99.99,WSDL version 420,2013-01-19 01:16:00,
2013-01-18 19:22:00,41.4,8.1,30.00,SSE,158,2.2,3.1,26,-99.99,,,-99.99,WSDL version 420,2013-01-19 01:22:00,
2013-01-18 19:28:00,41.2,8.9,30.00,SSE,158,2.6,3.1,26,-99.99,,,-99.99,WSDL version 420,2013-01-19 01:28:00,
2013-01-18 19:34:00,41.2,8.9,30.00,SSE,158,2.2,3.4,26,-99.99,,,-99.99,WSDL version 420,2013-01-19 01:34:00,
2013-01-18 19:40:00,41.0,8.7,30.00,SSE,158,1.3,2.9,26,-99.99,,,-99.99,WSDL version 420,2013-01-19 01:40:00,
2013-01-18 19:46:00,40.4,8.2,30.00,SSE,158,0.1,2.5,26,-99.99,,,-99.99,WSDL version 420,2013-01-19 01:46:00,
2013-01-18 19:52:00,39.7,6.7,30.00,SSE,158,0.4,1.6,26,-99.99,,,-99.99,WSDL version 420,2013-01-19 01:52:00,
2013-01-18 19:58:00,39.4,7.3,30.00,SSE,158,0.0,1.3,26,-99.99,,,-99.99,WSDL version 420,2013-01-19 01:58:00,
2013-01-18 20:04:00,39.4,7.3,30.00,SSE,158,1.5,2.2,26,-99.99,,,-99.99,WSDL version 420,2013-01-19 02:04:00,
2013-01-18 20:10:00,39.4,7.7,30.00,SSE,158,3.1,3.6,28,-99.99,,,-99.99,WSDL version 420,2013-01-19 02:10:00,
2013-01-18 20:16:00,39.4,9.0,30.00,SSE,158,3.1,3.6,28,-99.99,,,-99.99,WSDL version 420,2013-01-19 02:16:00,
2013-01-18 20:22:00,39.4,9.0,30.00,SSE,158,3.1,3.6,28,-99.99,,,-99.99,WSDL version 420,2013-01-19 02:22:00,
2013-01-18 20:28:00,39.6,9.1,30.00,SSE,158,2.8,4.0,28,-99.99,,,-99.99,WSDL version 420,2013-01-19 02:28:00,
2013-01-18 20:34:00,39.7,9.3,30.00,SSE,158,2.7,4.0,28,-99.99,,,-99.99,WSDL version 420,2013-01-19 02:34:00,
2013-01-18 20:40:00,39.7,9.3,30.00,SSE,158,2.8,3.4,28,-99.99,,,-99.99,WSDL version 420,2013-01-19 02:40:00,
2013-01-18 20:46:00,39.7,9.2,30.00,SSE,158,2.3,3.4,28,-99.99,,,-99.99,WSDL version 420,2013-01-19 02:46:00,
2013-01-18 20:52:00,39.6,9.1,30.00,SSE,158,2.9,3.4,28,-99.99,,,-99.99,WSDL version 420,2013-01-19 02:52:00,
2013-01-18 20:58:00,39.7,9.3,30.00,SSE,158,3.8,4.0,28,-99.99,,,-99.99,WSDL version 420,2013-01-19 02:58:00,
2013-01-18 21:04:00,39.7,9.3,30.00,SSE,155,3.8,4.9,28,-99.99,,,-99.99,WSDL version 420,2013-01-19 03:04:00,
2013-01-18 21:10:00,39.9,9.4,30.00,SSE,160,4.0,6.0,28,-99.99,,,-99.99,WSDL version 420,2013-01-19 03:10:00,
2013-01-18 21:16:00,40.1,9.6,30.00,SSE,158,3.8,6.0,28,-99.99,,,-99.99,WSDL version 420,2013-01-19 03:16:00,
2013-01-18 21:22:00,40.1,9.6,29.97,SSE,158,3.0,5.6,28,-99.99,,,-99.99,WSDL version 420,2013-01-19 03:22:00,
2013-01-18 21:28:00,40.2,9.7,29.97,SSE,158,3.4,5.4,28,-99.99,,,-99.99,WSDL version 420,2013-01-19 03:28:00,
2013-01-18 21:34:00,40.3,9.8,29.97,SSE,158,3.2,4.7,28,-99.99,,,-99.99,WSDL version 420,2013-01-19 03:34:00,
2013-01-18 21:40:00,40.3,9.8,29.97,SSE,158,3.7,4.9,28,-99.99,,,-99.99,WSDL version 420,2013-01-19 03:40:00,
2013-01-18 21:46:00,40.3,9.7,29.97,SSE,160,2.6,4.9,28,-99.99,,,-99.99,WSDL version 420,2013-01-19 03:46:00,
2013-01-18 21:52:00,40.0,9.5,29.97,SSE,158,2.3,4.0,28,-99.99,,,-99.99,WSDL version 420,2013-01-19 03:52:00,
2013-01-18 21:58:00,39.7,9.3,29.97,SSE,158,2.3,3.4,28,-99.99,,,-99.99,WSDL version 420,2013-01-19 03:58:00,
2013-01-18 22:04:00,39.6,9.1,30.00,SSE,158,2.9,3.6,28,-99.99,,,-99.99,WSDL version 420,2013-01-19 04:04:00,
2013-01-18 22:10:00,39.4,9.0,30.00,SSE,158,1.5,3.6,28,-99.99,,,-99.99,WSDL version 420,2013-01-19 04:10:00,
2013-01-18 22:16:00,38.9,9.2,30.00,SSE,158,2.2,2.9,29,-99.99,,,-99.99,WSDL version 420,2013-01-19 04:16:00,
2013-01-18 22:22:00,38.5,9.0,29.97,SSE,158,1.3,3.6,29,-99.99,,,-99.99,WSDL version 420,2013-01-19 04:22:00,
2013-01-18 22:28:00,37.8,8.3,29.97,SSE,158,0.0,2.5,29,-99.99,,,-99.99,WSDL version 420,2013-01-19 04:28:00,
2013-01-18 22:34:00,37.0,7.8,29.97,SSE,158,0.1,1.6,30,-99.99,,,-99.99,WSDL version 420,2013-01-19 04:34:00,
2013-01-18 22:40:00,36.7,8.2,29.97,SSE,158,2.4,4.3,30,-99.99,,,-99.99,WSDL version 420,2013-01-19 04:40:00,
2013-01-18 22:46:00,36.8,8.3,29.97,SSE,158,2.3,4.3,30,-99.99,,,-99.99,WSDL version 420,2013-01-19 04:46:00,
2013-01-18 22:52:00,36.5,8.0,30.00,SSE,158,1.3,2.9,30,-99.99,,,-99.99,WSDL version 420,2013-01-19 04:52:00,
2013-01-18 22:58:00,36.0,7.5,30.00,South,180,1.2,2.9,30,-99.99,,,-99.99,WSDL version 420,2013-01-19 04:58:00,
2013-01-18 23:01:00,35.8,7.4,30.00,South,180,0.6,2.9,30,-99.99,,,-99.99,WSDL version 420,2013-01-19 05:01:00,
2013-01-18 23:07:00,35.8,7.4,29.97,SSE,161,1.7,2.9,30,-99.99,,,-99.99,WSDL version 420,2013-01-19 05:07:00,
2013-01-18 23:13:00,36.0,7.5,29.97,SSE,158,1.3,3.8,30,-99.99,,,-99.99,WSDL version 420,2013-01-19 05:13:00,
2013-01-18 23:19:00,35.7,7.3,29.97,SSE,158,1.1,3.6,30,-99.99,,,-99.99,WSDL version 420,2013-01-19 05:19:00,
2013-01-18 23:25:00,35.5,7.7,29.97,South,190,1.0,2.7,31,-99.99,,,-99.99,WSDL version 420,2013-01-19 05:25:00,
2013-01-18 23:31:00,35.3,7.7,29.97,SSW,203,0.0,2.7,31,-99.99,,,-99.99,WSDL version 420,2013-01-19 05:31:00,
2013-01-18 23:37:00,35.1,7.5,29.97,SSE,152,1.1,2.5,31,-99.99,,,-99.99,WSDL version 420,2013-01-19 05:37:00,
2013-01-18 23:43:00,35.0,7.4,29.97,SSE,158,0.7,2.5,31,-99.99,,,-99.99,WSDL version 420,2013-01-19 05:43:00,
2013-01-18 23:49:00,35.1,8.2,29.97,SSE,158,2.8,3.1,32,-99.99,,,-99.99,WSDL version 420,2013-01-19 05:49:00,
2013-01-18 23:55:00,35.5,8.3,29.97,South,170,2.9,4.9,31,-99.99,,,-99.99,WSDL version 420,2013-01-19 05:55:00,